User: anonymous   Login
Location: Unspecified
(0.0000°N, 0.0000°E)
Time: 19:24:59
(UTC+00:00)
Language:

STARLINK-32380 - Orbit

View from above orbital plane
View from above orbital plane
View from above satellite
View from above satellite

Ground track
Ground track

The orbit is defined by the following mean orbital elements,

1 61069U          26145.14321230 +.00000000 +00000-0 +29817-4 0 00000
2 61069  53.1620  95.9516 0001284  83.8227 276.2921 15.31705155    03
Epoch (UTC): 25 May 2026 03:26:13
Eccentricity: 0.0001284
inclination: 53.1620°
perigee height: 470 km
apogee height: 472 km
right ascension of ascending node: 95.9516°
argument of perigee: 83.8227°
revolutions per day: 15.31705155
mean anomaly at epoch: 276.2921°

The dashed part of the orbit path shows where the satellite is in the earth's shadow,  

DLR